Weather History for Fairhope, AL

Change the Weather History Date:

Thursday, March 7, 2013

  Actual Average (KBFM) Record (KBFM)
Temperature  
Mean Temperature 50 °F -  
Max Temperature 64 °F 65 °F 78 °F (2004)
Min Temperature 35 °F 46 °F 35 °F (2013)
Degree Days  
Heating Degree Days 16    
Moisture  
Dew Point 35 °F    
Average Humidity 67    
Maximum Humidity 100    
Minimum Humidity 28    
Precipitation  
Precipitation 0.00 in - - ()
Sea Level Pressure  
Sea Level Pressure 30.28 in    
Wind  
Wind Speed 5 mph (North)    
Max Wind Speed 10 mph    
Max Gust Speed -    
Visibility 9 miles    
Events      
Averages and records for this station are not official NWS values.
T = Trace of Precipitation, MM = Missing Value Source: NWS Daily Summary

Daily Weather History Graph

Daily Weather History Graph

Search for Another Location

Airport:

Trip Planner

Search our weather history database for the weather conditions in past years. The results will help you decide how hot, cold, wet, or windy it might be!

Date:

Astronomy

Mar. 07, 2013 Rise Set
Actual Time 6:10 AM CST 5:54 PM CST
Civil Twilight 5:46 AM CST 6:18 PM CST
Nautical Twilight 5:18 AM CST 6:46 PM CST
Astronomical Twilight 4:50 AM CST 7:14 PM CST
Moon 2:55 AM CST (3/7) 1:55 PM CST (3/7)
Length of Visible Light 12h 32m
Length of Day
11h 44m
Waning Crescent, 20% of the Moon is Illuminated
Mar 7
Waning Crescent
Mar 11
New
Mar 19
First Quarter
Mar 27
Full
Apr 2
Last Quarter

Hourly Weather History & Observations

Time (CST) Temp. Windchill Dew Point Humidity Pressure Visibility Wind Dir Wind Speed Gust Speed Precip Events Conditions
12:15 AM 41.0 °F 39.0 °F 32.0 °F 70% 30.27 in 10.0 mi North 3.5 mph - N/A   Clear
12:35 AM 41.0 °F 39.0 °F 32.0 °F 70% 30.27 in 10.0 mi North 3.5 mph - N/A   Clear
12:55 AM 41.0 °F 36.4 °F 32.0 °F 70% 30.27 in 10.0 mi North 6.9 mph - N/A   Clear
1:15 AM 39.2 °F 34.2 °F 32.0 °F 75% 30.28 in 10.0 mi NNE 6.9 mph - N/A   Clear
1:35 AM 39.2 °F 35.0 °F 32.0 °F 75% 30.28 in 10.0 mi NNE 5.8 mph - N/A   Clear
1:55 AM 39.2 °F 35.0 °F 32.0 °F 75% 30.28 in 10.0 mi North 5.8 mph - N/A   Clear
2:15 AM 39.2 °F 37.0 °F 32.0 °F 75% 30.27 in 10.0 mi North 3.5 mph - N/A   Clear
2:35 AM 37.4 °F 34.9 °F 32.0 °F 81% 30.27 in 10.0 mi NNE 3.5 mph - N/A   Clear
3:15 AM 37.4 °F 32.8 °F 32.0 °F 81% 30.26 in 10.0 mi NNE 5.8 mph - N/A   Clear
3:35 AM 37.4 °F 32.8 °F 32.0 °F 81% 30.26 in 10.0 mi NNE 5.8 mph - N/A   Clear
3:55 AM 35.6 °F 31.7 °F 32.0 °F 87% 30.26 in 10.0 mi NNE 4.6 mph - N/A   Clear
4:15 AM 35.6 °F 30.7 °F 32.0 °F 87% 30.26 in 10.0 mi NNE 5.8 mph - N/A   Clear
4:35 AM 37.4 °F 33.8 °F 32.0 °F 81% 30.27 in 10.0 mi NNE 4.6 mph - N/A   Clear
5:15 AM 37.4 °F 33.8 °F 32.0 °F 81% 30.26 in 10.0 mi NE 4.6 mph - N/A   Clear
5:35 AM 37.4 °F 33.8 °F 32.0 °F 81% 30.26 in 10.0 mi NNE 4.6 mph - N/A   Clear
5:55 AM 37.4 °F 32.8 °F 32.0 °F 81% 30.28 in 10.0 mi NNE 5.8 mph - N/A   Clear
6:15 AM 37.4 °F 32.1 °F 32.0 °F 81% 30.28 in 10.0 mi NNE 6.9 mph - N/A   Clear
6:35 AM 37.4 °F 32.8 °F 32.0 °F 81% 30.29 in 10.0 mi NNE 5.8 mph - N/A   Clear
6:55 AM 37.4 °F 32.1 °F 32.0 °F 81% 30.31 in 10.0 mi North 6.9 mph - N/A   Clear
7:15 AM 41.0 °F 37.1 °F 32.0 °F 70% 30.32 in 10.0 mi North 5.8 mph - N/A   Clear
7:35 AM 41.0 °F 35.8 °F 32.0 °F 70% 30.33 in 10.0 mi North 8.1 mph - N/A   Clear
8:15 AM 44.6 °F 40.2 °F 32.0 °F 61% 30.34 in 10.0 mi NNE 8.1 mph - N/A   Clear
8:35 AM 46.4 °F 41.9 °F 32.0 °F 57% 30.35 in 10.0 mi NNE 9.2 mph - N/A   Clear
9:15 AM 50.0 °F - 32.0 °F 50% 30.35 in 10.0 mi NE 10.4 mph - N/A   Clear
9:35 AM 50.0 °F - 32.0 °F 50% 30.34 in 10.0 mi NE 8.1 mph - N/A   Clear
9:55 AM 51.8 °F - 32.0 °F 47% 30.34 in 10.0 mi North 4.6 mph - N/A   Clear
10:15 AM 51.8 °F - 32.0 °F 47% 30.34 in 7.0 mi NNE 6.9 mph - N/A   Clear
10:35 AM 53.6 °F - 32.0 °F 44% 30.34 in 10.0 mi North 6.9 mph - N/A   Clear
10:55 AM 53.6 °F - 32.0 °F 44% 30.34 in 10.0 mi NE 4.6 mph - N/A   Clear
11:15 AM 55.4 °F - 32.0 °F 41% 30.34 in 10.0 mi NNW 6.9 mph - N/A   Clear
11:35 AM 55.4 °F - 32.0 °F 41% 30.34 in 10.0 mi North 5.8 mph - N/A   Clear
11:55 AM 57.2 °F - 35.6 °F 44% 30.33 in 10.0 mi West 5.8 mph - N/A   Clear
12:15 PM 57.2 °F - 35.6 °F 44% 30.31 in 7.0 mi WNW 6.9 mph - N/A   Clear
12:35 PM 57.2 °F - 35.6 °F 44% 30.30 in 7.0 mi West 5.8 mph - N/A   Clear
12:55 PM 59.0 °F - 35.6 °F 42% 30.29 in 5.0 mi NW 6.9 mph - N/A   Haze
1:15 PM 59.0 °F - 33.8 °F 39% 30.28 in 7.0 mi WNW 6.9 mph - N/A   Clear
1:35 PM 59.0 °F - 33.8 °F 39% 30.27 in 10.0 mi NW 8.1 mph - N/A   Clear
2:15 PM 60.8 °F - 32.0 °F 34% 30.25 in 7.0 mi WNW 5.8 mph - N/A   Clear
2:35 PM 62.6 °F - 32.0 °F 32% 30.25 in 7.0 mi NW 9.2 mph - N/A   Clear
2:55 PM 62.6 °F - 32.0 °F 32% 30.25 in 10.0 mi NW 8.1 mph - N/A   Clear
3:15 PM 64.4 °F - 30.2 °F 28% 30.25 in 10.0 mi NNW 9.2 mph - N/A   Clear
3:35 PM 62.6 °F - 32.0 °F 32% 30.24 in 7.0 mi NNW 3.5 mph - N/A   Clear
3:55 PM 62.6 °F - 32.0 °F 32% 30.23 in 10.0 mi NNW 4.6 mph - N/A   Clear
4:15 PM 57.2 °F - 41.0 °F 55% 30.24 in 10.0 mi SW 9.2 mph - N/A   Clear
4:35 PM 55.4 °F - 41.0 °F 58% 30.24 in 10.0 mi SW 5.8 mph - N/A   Clear
4:55 PM 55.4 °F - 41.0 °F 58% 30.23 in 10.0 mi SW 8.1 mph - N/A   Clear
5:15 PM 55.4 °F - 41.0 °F 58% 30.23 in 10.0 mi SW 6.9 mph - N/A   Clear
5:35 PM 53.6 °F - 42.8 °F 67% 30.24 in 10.0 mi SW 4.6 mph - N/A   Clear
5:55 PM 53.6 °F - 42.8 °F 67% 30.24 in 10.0 mi SW 4.6 mph - N/A   Clear
7:55 PM 46.4 °F - 42.8 °F 87% 30.25 in 10.0 mi Calm Calm - N/A   Clear
8:15 PM 44.6 °F - 42.8 °F 93% 30.26 in 10.0 mi Calm Calm - N/A   Clear
8:35 PM 44.6 °F - 42.8 °F 93% 30.26 in 7.0 mi Calm Calm - N/A   Clear
8:55 PM 42.8 °F - 41.0 °F 93% 30.27 in 5.0 mi Calm Calm - N/A   Clear
9:15 PM 42.8 °F - 41.0 °F 93% 30.27 in 4.0 mi Calm Calm - N/A   Clear
9:35 PM 42.8 °F - 41.0 °F 93% 30.27 in 4.0 mi Calm Calm - N/A   Clear
9:55 PM 44.6 °F - 42.8 °F 93% 30.27 in 7.0 mi Calm Calm - N/A   Clear
10:15 PM 42.8 °F - 42.8 °F 100% 30.26 in 7.0 mi Calm Calm - N/A   Clear
10:35 PM 42.8 °F - 41.0 °F 93% 30.26 in 4.0 mi Calm Calm - N/A   Clear
10:55 PM 41.0 °F - 41.0 °F 100% 30.27 in 7.0 mi Calm Calm - N/A   Clear
11:15 PM 41.0 °F - 41.0 °F 100% 30.26 in 2.5 mi Calm Calm - N/A   Clear
11:35 PM 41.0 °F - 41.0 °F 100% 30.26 in 7.0 mi Calm Calm - N/A   Clear
11:55 PM 39.2 °F - 39.2 °F 100% 30.25 in 1.8 mi Calm Calm - N/A   Mist